When you browse on this site, cookies collect data to enhance your experience and personalize the content and advertising you see.
Visit our Privacy Policy to learn more. By continuing to use the site, you agree to this use of cookies and data.
  • în România
  • Lista ţărilor
  • Pe 7 zile
  • Temperatura apei
  • Meteo pe hartă
  • Widget-uri
  • user-avatar
    Intrare

    Meteo pe oră la Satif

    Astăzi, 6 Iunie, Sâmbătă

    Timp Temperatura Precipitaţii Vânt Presiune Umiditate
    00:00 +16°C° 0 mm 1 m/s 671 mmHg 66%
    01:00 +15°C° 0 mm 1 m/s 671 mmHg 67%
    02:00 +15°C° 0 mm 1 m/s 670 mmHg 69%
    03:00 +14°C° 0 mm 1 m/s 670 mmHg 71%
    04:00 +15°C° 0 mm 1 m/s 670 mmHg 66%
    05:00 +16°C° 0 mm 1 m/s 671 mmHg 62%
    06:00 +18°C° 0 mm 1 m/s 671 mmHg 57%
    07:00 +19°C° 0 mm 1 m/s 672 mmHg 49%
    08:00 +21°C° 0 mm 1 m/s 672 mmHg 42%
    09:00 +22°C° 0 mm 1 m/s 672 mmHg 35%
    10:00 +24°C° 0 mm 1 m/s 672 mmHg 31%
    11:00 +25°C° 0 mm 1 m/s 673 mmHg 27%
    12:00 +27°C° 0 mm 2 m/s 673 mmHg 23%
    13:00 +27°C° 0 mm 3 m/s 673 mmHg 22%
    14:00 +28°C° 0 mm 4 m/s 672 mmHg 21%
    15:00 +28°C° 0 mm 6 m/s 672 mmHg 20%
    16:00 +28°C° 0 mm 5 m/s 672 mmHg 22%
    17:00 +27°C° 0 mm 4 m/s 671 mmHg 24%
    18:00 +26°C° 0 mm 4 m/s 671 mmHg 25%
    19:00 +26°C° 0 mm 3 m/s 671 mmHg 26%
    20:00 +25°C° 0 mm 3 m/s 671 mmHg 27%
    21:00 +24°C° 0 mm 2 m/s 670 mmHg 28%
    22:00 +23°C° 0 mm 2 m/s 670 mmHg 28%
    23:00 +23°C° 0 mm 2 m/s 669 mmHg 28%

    Mâine, 7 Iunie, Duminică

    Timp Temperatura Precipitaţii Vânt Presiune Umiditate
    00:00 +23°C° 0 mm 2 m/s 669 mmHg 28%
    01:00 +21°C° 0.2 mm 2 m/s 669 mmHg 33%
    02:00 +22°C° 0.2 mm 1 m/s 668 mmHg 37%
    03:00 +21°C° 0.2 mm 1 m/s 668 mmHg 42%
    04:00 +22°C° 0.3 mm 1 m/s 668 mmHg 42%
    05:00 +22°C° 0.3 mm 1 m/s 669 mmHg 42%
    06:00 +22°C° 0.3 mm 1 m/s 669 mmHg 42%
    07:00 +23°C° 0 mm 1 m/s 669 mmHg 40%
    08:00 +24°C° 0 mm 2 m/s 670 mmHg 39%
    09:00 +25°C° 0 mm 2 m/s 670 mmHg 37%
    10:00 +25°C° 0 mm 2 m/s 670 mmHg 37%
    11:00 +26°C° 0 mm 3 m/s 670 mmHg 37%
    12:00 +26°C° 0 mm 3 m/s 670 mmHg 37%
    13:00 +26°C° 0 mm 4 m/s 670 mmHg 37%
    14:00 +26°C° 0 mm 4 m/s 670 mmHg 38%
    15:00 +26°C° 0 mm 4 m/s 670 mmHg 39%
    16:00 +25°C° 0 mm 4 m/s 670 mmHg 42%
    17:00 +23°C° 0 mm 4 m/s 670 mmHg 45%
    18:00 +22°C° 0 mm 3 m/s 670 mmHg 48%
    19:00 +21°C° 0 mm 3 m/s 670 mmHg 52%
    20:00 +20°C° 0 mm 2 m/s 670 mmHg 56%
    21:00 +19°C° 0 mm 2 m/s 670 mmHg 60%
    22:00 +20°C° 0 mm 1 m/s 670 mmHg 62%
    23:00 +19°C° 0 mm 1 m/s 670 mmHg 64%

    Poimâine, 8 Iunie, Luni

    Timp Temperatura Precipitaţii Vânt Presiune Umiditate
    00:00 +19°C° 0 mm 1 m/s 669 mmHg 66%
    01:00 +18°C° 0 mm 1 m/s 669 mmHg 68%
    02:00 +18°C° 0 mm 1 m/s 668 mmHg 69%
    03:00 +18°C° 0 mm 1 m/s 668 mmHg 71%
    04:00 +18°C° 0 mm 1 m/s 668 mmHg 68%
    05:00 +19°C° 0 mm 1 m/s 668 mmHg 64%
    06:00 +19°C° 0 mm 1 m/s 669 mmHg 61%
    07:00 +21°C° 0 mm 1 m/s 669 mmHg 53%
    08:00 +21°C° 0 mm 2 m/s 670 mmHg 44%
    09:00 +24°C° 0 mm 2 m/s 671 mmHg 36%
    10:00 +24°C° 0 mm 3 m/s 671 mmHg 34%
    11:00 +25°C° 0 mm 4 m/s 671 mmHg 31%
    12:00 +26°C° 0 mm 5 m/s 670 mmHg 29%
    13:00 +26°C° 0.2 mm 5 m/s 670 mmHg 31%
    14:00 +25°C° 0.2 mm 5 m/s 670 mmHg 34%
    15:00 +25°C° 0.2 mm 5 m/s 670 mmHg 37%
    16:00 +23°C° 0.3 mm 5 m/s 670 mmHg 43%
    17:00 +22°C° 0.3 mm 4 m/s 670 mmHg 49%
    18:00 +20°C° 0.3 mm 4 m/s 669 mmHg 55%
    19:00 +19°C° 0.1 mm 3 m/s 669 mmHg 61%
    20:00 +18°C° 0.1 mm 2 m/s 670 mmHg 66%
    21:00 +17°C° 0.1 mm 2 m/s 670 mmHg 71%
    22:00 +18°C° 0.1 mm 1 m/s 670 mmHg 74%
    23:00 +18°C° 0.1 mm 1 m/s 670 mmHg 76%

    9 Iunie, Marţi

    Timp Temperatura Precipitaţii Vânt Presiune Umiditate
    00:00 +16°C° 0.1 mm 1 m/s 670 mmHg 79%
    01:00 +15°C° 0 mm 0 m/s 669 mmHg 81%
    02:00 +14°C° 0 mm 0 m/s 669 mmHg 82%
    03:00 +14°C° 0 mm 0 m/s 669 mmHg 84%
    04:00 +15°C° 0 mm 1 m/s 669 mmHg 82%
    05:00 +16°C° 0 mm 1 m/s 669 mmHg 80%
    06:00 +16°C° 0 mm 1 m/s 670 mmHg 78%
    07:00 +17°C° 0 mm 2 m/s 670 mmHg 70%
    08:00 +18°C° 0 mm 2 m/s 671 mmHg 62%
    09:00 +19°C° 0 mm 2 m/s 671 mmHg 55%
    10:00 +20°C° 0 mm 3 m/s 671 mmHg 52%
    11:00 +21°C° 0 mm 3 m/s 671 mmHg 49%
    12:00 +21°C° 0 mm 3 m/s 672 mmHg 46%
    13:00 +21°C° 0 mm 3 m/s 672 mmHg 47%
    14:00 +21°C° 0 mm 4 m/s 672 mmHg 48%
    15:00 +22°C° 0 mm 4 m/s 671 mmHg 49%
    16:00 +20°C° 0 mm 4 m/s 671 mmHg 55%
    17:00 +19°C° 0 mm 4 m/s 671 mmHg 61%
    18:00 +18°C° 0 mm 4 m/s 671 mmHg 67%
    19:00 +17°C° 0 mm 3 m/s 672 mmHg 70%
    20:00 +16°C° 0 mm 2 m/s 672 mmHg 74%
    21:00 +15°C° 0 mm 2 m/s 672 mmHg 78%
    22:00 +15°C° 0 mm 2 m/s 672 mmHg 79%
    23:00 +15°C° 0 mm 2 m/s 672 mmHg 80%

    10 Iunie, Miercuri

    Timp Temperatura Precipitaţii Vânt Presiune Umiditate
    00:00 +14°C° 0 mm 1 m/s 672 mmHg 82%
    01:00 +14°C° 0 mm 1 m/s 671 mmHg 84%
    02:00 +14°C° 0 mm 1 m/s 671 mmHg 86%
    03:00 +13°C° 0 mm 1 m/s 670 mmHg 88%
    04:00 +14°C° 0 mm 1 m/s 671 mmHg 84%
    05:00 +15°C° 0 mm 1 m/s 671 mmHg 80%
    06:00 +15°C° 0 mm 1 m/s 671 mmHg 77%
    07:00 +17°C° 0 mm 2 m/s 672 mmHg 65%
    08:00 +19°C° 0 mm 2 m/s 673 mmHg 53%
    09:00 +20°C° 0 mm 3 m/s 673 mmHg 41%
    10:00 +21°C° 0 mm 4 m/s 673 mmHg 38%
    11:00 +22°C° 0 mm 5 m/s 674 mmHg 36%
    12:00 +23°C° 0 mm 7 m/s 674 mmHg 34%
    13:00 +23°C° 0 mm 6 m/s 673 mmHg 35%
    14:00 +23°C° 0 mm 5 m/s 673 mmHg 36%
    15:00 +22°C° 0 mm 4 m/s 672 mmHg 37%
    16:00 +22°C° 0 mm 4 m/s 672 mmHg 40%
    17:00 +21°C° 0 mm 3 m/s 672 mmHg 43%
    18:00 +20°C° 0 mm 3 m/s 672 mmHg 46%
    19:00 +19°C° 0 mm 2 m/s 672 mmHg 52%
    20:00 +18°C° 0 mm 2 m/s 672 mmHg 57%
    21:00 +18°C° 0 mm 1 m/s 672 mmHg 62%
    22:00 +18°C° 0 mm 1 m/s 672 mmHg 64%
    23:00 +16°C° 0 mm 1 m/s 671 mmHg 65%

    11 Iunie, Joi

    Timp Temperatura Precipitaţii Vânt Presiune Umiditate
    00:00 +16°C° 0 mm 1 m/s 671 mmHg 66%
    01:00 +16°C° 0 mm 1 m/s 671 mmHg 68%
    02:00 +15°C° 0 mm 1 m/s 670 mmHg 69%
    03:00 +14°C° 0 mm 0 m/s 670 mmHg 71%
    04:00 +14°C° 0 mm 0 m/s 670 mmHg 68%
    05:00 +16°C° 0 mm 1 m/s 670 mmHg 65%
    06:00 +18°C° 0 mm 1 m/s 671 mmHg 62%
    07:00 +19°C° 0 mm 1 m/s 671 mmHg 54%
    08:00 +19°C° 0 mm 2 m/s 672 mmHg 46%
    09:00 +21°C° 0 mm 2 m/s 672 mmHg 38%
    10:00 +22°C° 0 mm 3 m/s 672 mmHg 33%
    11:00 +23°C° 0 mm 4 m/s 672 mmHg 28%
    12:00 +25°C° 0 mm 4 m/s 672 mmHg 24%
    13:00 +25°C° 0 mm 4 m/s 672 mmHg 24%
    14:00 +25°C° 0 mm 5 m/s 671 mmHg 24%
    15:00 +25°C° 0 mm 5 m/s 671 mmHg 24%
    16:00 +23°C° 0 mm 5 m/s 671 mmHg 27%
    17:00 +22°C° 0 mm 5 m/s 671 mmHg 30%
    18:00 +21°C° 0 mm 5 m/s 670 mmHg 33%
    19:00 +20°C° 0 mm 3 m/s 670 mmHg 36%
    20:00 +19°C° 0 mm 2 m/s 670 mmHg 40%
    21:00 +17°C° 0 mm 0 m/s 671 mmHg 43%
    22:00 +19°C° 0 mm 1 m/s 670 mmHg 44%
    23:00 +18°C° 0 mm 1 m/s 670 mmHg 45%
    Arată mai mult